Location: Newark
(41.6500°N, 71.4833°W)
Time: 21:12:00
(UTC+00:00)

Starlink Launch 2 leader - Visible Passes

Search period start: 09 December 2019 00:00
Search period end: 19 December 2019 00:00
Orbit: 279 x 281 km, 53.0° (Epoch: 13 November)

Date Brightness Start Highest point End Pass type
(mag) Time Alt. Az. Time Alt. Az. Time Alt. Az.
09 Dec 5.6 09:50:35 14° ENE 09:50:35 14° ENE 09:51:11 10° E visible
09 Dec 3.9 11:20:43 10° W 11:22:41 22° SW 11:24:40 10° S visible
10 Dec 5.4 09:52:45 17° ESE 09:52:45 17° ESE 09:53:29 10° ESE visible
10 Dec 4.8 11:23:41 10° WSW 11:24:27 11° SW 11:25:12 10° SSW visible
11 Dec 5.4 09:54:59 15° SE 09:54:59 15° SE 09:55:30 10° SE visible
